AQI (13)

Current Conditions for Foresthill, CA. Sunny, Dry   
Visibility: 10 miles
Space WX Alerts: N/A ( Latest Alert ) - N/A

  Summary / Temperature 

Current Temperature
91.5°F
33.1°C
(24/hr Ago)
89.1°F
(Apparent temp)
91.5°F
Uncomfortably Hot
Heat Index
88.9°F 

94.6°F/ 34.8°C
Evident discomfort

 Temp Rate:

 24/hr Difference:

 Avg Running Temp:

 Todays High:

 Todays Low:

 Y-days High:

 Y-days Low:

 Todays HeatIdx:

 Y-days HeatIdx:

 Evapotranspiration:

+2.3°F/hr 

+2.4°F

90.3°F

92.1°F 2:17pm

65.8°F 5:41am

90.8°F 4:10pm

64.5°F 5:52am

89.6°F 2:30pm

87.8°F 4:25pm

0.155 in

115' Above Ground

 Temperature:

 6'AGL VRS 115'AGL:

 Avg Running Temp:

 Humidity:

 Todays High:

 Todays Low:

 Y-days High:

 Y-days Low:

88.0°F 

-3.5°F

87.6°F

28% 

89.0°F 2:28pm

68.0°F 3:24am

87.0°F 4:49pm

66.0°F 5:24am

Temp & Humidity Graphs

  Wind 

Wind Speed

 8.0 mph

Gusting to

 8.0 mph

Wind from W

271°  W

Gentle breeze

 Avg speed:

 Wind Run:

 Peak Gust:

  1.0 mph 

39.0 miles

  20.0 mph 6:08am

  Almanac  

Moon age: 20 days,6 hours,44 minutes,69%

Waning Gibbous
69%
Illuminated
20 days in cycle

 Moonrise:

 Moonset:

 Sunrise:

 Sunset:

 Solar Noon:

---

11:11am

5:47am

8:31pm

1:09pm

1min 0s less daylight tomorrow 

  Solar Radiation 

(Current Solar)
  828 W/m2 (83%)
(Todays High)
 951 W/m2@12:57pm
Feels like: 106.5°F in the sun

Rain

 Rain Today:

 Rain Rate (/hr):

 Rain last hour:

 Rain Yesterday:

 This Month:

 Season Total:

27 Days Since Last Rain Day

0.00 in

0.000 in

0.00 in

0.00 in

0.00 in

0.00 in

Updated Time

Updated: 7/10/20  2:48pm

(Updated  sec ago)

Humidity & Barometer

 Humidity:

 Wetbulb:

 Dew Point:

 Barometer:

26% 

69.1°F 

51.8°F 

29.968 inHg 

 Baro Trend:  Steady 
Northern Calif
Preparedness
Fire 
Level 

    UV Index  

(Current UV)
7.3  High
(Todays High) @ 12:57pm
9.3   Very High

National Weather Service Forecast

This
Afternoon
This Afternoon: Sunny
Sunny
Tonight

Tonight: Mostly Clear
Mostly Clear
Saturday

Saturday: Sunny
Sunny
Saturday
Night
Saturday Night: Clear
Clear
Sunday

Sunday: Sunny
Sunny
Sunday
Night
Sunday Night: Clear
Clear
Hi 93 °F Lo 68 °F Hi 94 °F Lo 67 °F Hi 95 °F Lo 67 °F

Foresthill Probe 2 Stats  
Foresthill Probe 2: is located on Thomas Street
at 3000 feet. The main Foresthill Weather site
is located on Melody ln at the 2860 foot elevation

Calm
91.8°F
33.2°C
Temp Rate:
+1.6°F
Calm
Gusting to
4.0 mph
(Humidity)
28%
Wind from W
271°  W
Updated: 10/07/20 - 14:49:21
 Todays High: 92.0°F 14:46
 Todays Low: 63.1°F 06:46
 Rain Today: 0.00 in
 Season Total: 0.00 in

Foresthill Wx: Monthly,Yearly, Highs and Lows 

Foresthill  
This Weather Data is coming from the main Foresthill
Weather site located on Melody ln at the 2860 foot
elevation
Not Foresthill Probe 2
Weather Data
Month
  High
Month
  Low
Year
High
Year
Low
Temp 92.1°F
7/10/20
59.1°F
7/7/20
95.9°F
6/26/20
28.3°F
2/3/20
Humidity 68%
7/3/20
18%
7/4/20
100%
1/8/20
12%
2/17/20
Heat Index 89.6°F
7/10/20
59.2°F
7/7/20
98.7°F
6/26/20
28.2°F
2/4/20
Wind Chill 92.1°F
7/10/20
57.8°F
7/7/20
95.9°F
6/26/20
14.7°F
2/3/20
Wind Gust 22 mph
7/7/20
0 mph
7/1/20
46 mph
2/9/20
0 mph
1/1/20
Barometer 30.05 in
7/4/20
29.74 in
7/1/20
30.59 in
1/5/20
29.57 in
6/28/20
ET 0.26 in
7/6/20
0.00 in
7/1/20
0.31 in
6/27/20
0.00 in
1/1/20
Dew Point 54.3°F
7/9/20
32.4°F
7/4/20
67.5°F
6/26/20
-2.6°F
2/3/20
Visible Satellite Pacific Satellite US Radar Satellite Imagery Sacramento,CA.  (click to enlarge)
NWS Weather Forecast - Summary
Updated: Friday, July 10, 2020 - 2:40am PDT
Warming and Drying This Weekend with Breezy Delta Winds at Times
NWS Weather Forecast: This Afternoon and Tonight (Updated: Fri, 10-Jul-2020 1:47pm PDT)
This
Afternoon
This Afternoon: Sunny
Sunny

Hi 93 °F
NWS forecast: Sunny, with a high near 93. West southwest wind around 7 mph.
Tonight

Tonight: Mostly Clear
Mostly Clear

Lo 68 °F
NWS forecast: Mostly clear, with a low around 68. East southeast wind 1 to 8 mph.
YR.NO 10 Day Weather forecast
Last update: 07/10/2020 @ 06:29
Next update: 07/10/2020 @ 12:30
Provided by: 22
      Temperature Precipitation Pressure Wind  
Today
07/10/2020
13:00 18:00 90°F   29.97 inHg Gentle breeze from west-southwest 8 mph
  18:00 00:00 88°F   29.96 inHg Light breeze from west-southwest 6 mph
    (Click to enlarge)
meteogram

    Forecast for next 9 days

      Temperature Precip Pressure Wind  
Saturday
07/11/2020
00:00 06:00 61°F   30.00 inHg Light air from east-northeast 3 mph
  06:00 12:00 57°F   30.00 inHg Light breeze from east 6 mph
  12:00 18:00 91°F   30.01 inHg Gentle breeze from west-southwest 8 mph
  18:00 00:00 91°F   29.95 inHg Light breeze from west-southwest 6 mph
      Temperature Precip Pressure Wind  
Sunday
07/12/2020
00:00 06:00 61°F   29.96 inHg Light breeze from east-northeast 4 mph
  06:00 12:00 59°F   29.93 inHg Light breeze from east 7 mph
  12:00 18:00 95°F   29.90 inHg Gentle breeze from southwest 8 mph
  17:00 23:00 95°F   29.83 inHg Light breeze from southwest 7 mph
  23:00 05:00 70°F   29.84 inHg Light breeze from east 4 mph
      Temperature Precip Pressure Wind  
Monday
07/13/2020
05:00 11:00 61°F   29.82 inHg Light breeze from east 7 mph
  11:00 17:00 90°F   29.83 inHg Light breeze from southwest 7 mph
  17:00 23:00 91°F   29.80 inHg Light breeze from southwest 7 mph
  23:00 05:00 64°F   29.82 inHg Light breeze from east-northeast 4 mph
      Temperature Precip Pressure Wind  
Tuesday
07/14/2020
05:00 11:00 61°F   29.81 inHg Light breeze from east-northeast 6 mph
  11:00 17:00 90°F   29.83 inHg Light breeze from west-southwest 6 mph
  17:00 23:00 91°F   29.80 inHg Light breeze from west-southwest 6 mph
  23:00 05:00 72°F   29.85 inHg Light air from east 2 mph
      Temperature Precip Pressure Wind  
Wednesday
07/15/2020
05:00 11:00 59°F   29.82 inHg Light breeze from east-northeast 5 mph
  11:00 17:00 88°F   29.84 inHg Light breeze from west-southwest 6 mph
  17:00 23:00 90°F   29.78 inHg Light breeze from west-southwest 6 mph
  23:00 05:00 70°F   29.83 inHg Light air from east 2 mph
      Temperature Precip Pressure Wind  
Thursday
07/16/2020
05:00 11:00 57°F   29.82 inHg Light breeze from east-northeast 4 mph
  11:00 17:00 82°F   29.86 inHg Light breeze from west-southwest 6 mph
  17:00 23:00 88°F   29.83 inHg Light breeze from west-southwest 7 mph
  23:00 05:00 68°F   29.91 inHg Light air from east-southeast 1 mph
      Temperature Precip Pressure Wind  
Friday
07/17/2020
05:00 11:00 59°F   29.91 inHg Light breeze from east 4 mph
  11:00 17:00 86°F   29.94 inHg Light breeze from west-southwest 6 mph
  17:00 23:00 88°F   29.90 inHg Light breeze from west-southwest 7 mph
  23:00 05:00 68°F   29.93 inHg Light air from east 3 mph
      Temperature Precip Pressure Wind  
Saturday
07/18/2020
05:00 11:00 61°F   29.92 inHg Light breeze from east 6 mph
  11:00 17:00 86°F   29.93 inHg Gentle breeze from southwest 8 mph
  17:00 23:00 90°F   29.87 inHg Gentle breeze from southwest 8 mph
  23:00 05:00 68°F   29.90 inHg Light breeze from east 5 mph
      Temperature Precip Pressure Wind  
Sunday
07/19/2020
05:00 11:00 59°F   29.86 inHg Light breeze from east-northeast 7 mph
How Close Are We To this Month's Temperature Record ?
Updated Friday, Jul 10, 2020- 2:45:01 PM

Current Temperature: 91.5°F

July's High: Temperature Record 98.1°F - Set on Wed, Jul 29, 2015 - 2:57:00 PM
We are currently 6.6°F Less than this Month's record High

July's Low: Temperature Record 51.4°F - Set on Sun, Jul 10, 2016 - 7:04:00 AM
We are currently 40.1°F More than this Month's record Low

Weather History For Friday, July 10, 2020


On this Day - In Weather History ...
Data courtesy of weatherforyou.com
powered by Cumulus v1.9.3 (1059)
Ambient Weather VWS v14.00
Top Website Map Copyright © 2007 - 2020 Foresthillweather.com Never base important decisions on this or any weather information obtained from the Internet